Location: D�rnast
(49.6426°N, 11.9755°E)
Time: 20:10:51
(UTC+00:00)

Cosmos 1833 Rocket - Pass Details

Date: 24 January 2021
Orbit: 833 x 839 km, 71.0° (Epoch: 02 March)

Event Time Altitude Azimuth Distance (km) Brightness Sun altitude
Rises 16:40:20 0° 334° (NNW) 3,392 5.9 -7.6°
Reaches altitude 10° 16:43:14 10° 348° (NNW) 2,455 5.0 -8.0°
Maximum altitude 16:47:50 25° 43° (NE) 1,624 3.7 -8.7°
Drops below altitude 10° 16:52:26 10° 98° (E) 2,448 4.6 -9.4°
Enters shadow 16:53:10 - 102° (ESE) 2,674 4.8 -9.5°
